Theta_e
321 322 323 325 333 341 341 343 346 346 345 345 346 347 347 347 346 347 348 344 343 341 340 342 342 345 343 346 346 345 343 341
322 322 323 325 328 333 341 344 343 346 345 344 344 344 345 344 344 347 346 342 342 341 338 339 342 339 343 345 345 346 345 343
322 324 325 326 327 331 333 341 344 345 346 344 344 344 343 343 342 345 345 341 342 341 339 338 339 339 340 343 344 344 344 342
321 323 324 327 329 329 332 333 346 345 344 346 345 344 344 342 341 344 346 343 343 339 339 337 337 337 337 341 343 342 342 340
320 323 327 327 328 332 335 333 341 346 347 346 344 342 341 341 340 343 343 344 342 341 337 338 338 338 341 341 341 341 339 339
321 323 326 328 329 331 334 328 335 347 347 345 343 342 340 340 340 341 342 343 342 340 337 337 339 339 337 337 339 336 337 337
324 323 325 328 332 334 333 333 331 343 346 345 345 344 340 340 340 340 341 341 340 339 338 339 339 336 336 338 338 338 337 337
320 323 325 327 332 334 334 332 333 339 341 344 342 341 340 341 340 341 341 341 340 341 339 337 337 335 336 337 339 338 337 338
319 322 324 327 332 333 337 333 334 333 337 337 338 337 340 340 341 342 342 342 342 341 338 339 338 335 338 340 340 337 335 334
317 320 324 326 329 332 335 332 332 337 338 340 341 341 339 339 340 343 344 342 342 341 340 338 339 336 341 339 338 331 330 330
316 318 322 326 327 330 331 332 332 339 342 341 341 340 336 336 338 337 340 341 342 341 341 339 339 340 338 340 336 332 331 326
314 317 320 324 326 326 326 330 332 337 343 341 340 339 334 337 336 337 337 342 342 341 340 340 341 338 334 336 337 332 332 327
311 313 317 321 322 322 326 332 336 338 341 342 340 340 340 341 340 339 340 343 342 340 341 342 340 334 335 338 336 333 331 329
311 313 316 316 323 333 335 336 339 339 340 342 342 341 339 338 339 338 339 340 340 341 341 341 340 336 337 335 335 334 332 330
313 314 314 321 331 334 333 337 337 340 340 340 341 341 341 341 340 337 336 336 337 338 340 339 337 337 336 336 335 334 333 330
312 312 322 329 333 333 334 338 338 339 339 339 339 341 340 340 340 339 336 336 337 340 339 337 336 336 335 335 333 333 333 332
313 322 330 332 332 333 339 338 338 338 337 337 338 339 339 337 339 339 337 338 337 337 337 336 336 335 335 335 333 334 334 329
322 326 329 330 333 338 339 338 337 337 337 337 336 337 338 337 338 336 337 338 337 336 335 335 334 334 335 337 335 335 334 327
323 325 329 331 336 336 336 335 335 335 335 335 335 335 336 336 336 336 336 336 336 334 333 333 334 335 336 335 335 334 328 326
323 326 329 332 334 334 334 335 334 334 334 334 334 335 335 335 334 335 335 334 333 333 333 333 333 333 334 333 332 329 326 324
Wind_Speed
5 7 10 12 13 9 14 13 14 15 13 10 8 9 9 10 16 14 13 11 10 10 8 8 9 12 7 9 8 7 6 5
12 10 13 13 10 13 11 15 14 15 11 12 11 11 11 10 13 15 11 9 10 10 8 9 8 6 7 7 5 6 7 7
11 9 11 10 10 12 12 10 14 13 14 11 12 13 12 13 13 16 14 13 11 11 9 8 7 6 6 5 6 6 7 8
13 11 13 11 12 14 12 11 12 13 14 15 12 11 12 13 12 13 18 13 11 11 11 10 7 7 6 6 6 6 7 7
17 15 13 14 12 12 12 11 11 15 16 15 12 12 13 13 12 14 17 15 14 13 11 10 9 8 10 9 8 6 7 7
17 15 13 13 13 12 11 10 12 15 14 12 11 12 12 11 11 11 15 16 16 13 10 11 10 7 6 5 6 6 6 6
13 15 13 13 12 11 12 10 14 13 12 11 11 12 10 9 9 10 14 15 15 14 11 10 11 7 5 6 6 6 6 7
15 14 13 12 11 12 11 9 11 10 8 8 8 9 9 9 9 10 15 13 17 13 10 10 9 8 7 6 8 6 5 5
17 15 15 13 12 12 11 8 6 7 7 7 8 10 8 8 9 13 14 13 14 13 10 10 10 9 10 10 6 7 5 3
18 17 15 15 15 13 10 8 5 8 8 7 4 7 6 7 8 11 12 13 13 11 10 9 9 9 8 8 8 4 3 4
19 19 16 14 13 14 9 8 7 10 10 8 7 8 6 7 7 7 9 12 12 13 12 10 11 9 8 8 8 8 6 4
21 19 17 15 15 9 8 7 7 9 13 11 13 7 8 6 8 7 8 12 12 11 11 11 11 6 6 7 7 6 6 6
22 21 18 16 10 9 8 6 7 10 12 11 10 8 6 7 8 12 10 9 10 11 12 12 10 6 7 7 8 8 7 5
17 17 13 13 8 6 5 6 8 11 12 12 11 11 10 10 11 10 9 8 8 9 11 9 8 8 8 7 8 9 7 7
12 11 9 8 6 5 4 9 11 12 11 11 11 11 12 13 14 11 11 9 8 9 9 9 8 7 6 6 7 7 7 7
12 10 6 6 5 6 8 10 12 12 12 11 10 12 9 10 11 9 8 8 8 10 8 8 6 6 6 6 5 5 6 6
10 6 6 6 8 9 11 13 12 12 12 11 12 11 12 10 11 10 8 9 8 8 7 6 6 6 7 6 5 6 6 5
2 6 8 9 9 11 12 13 14 13 13 12 10 11 11 11 10 10 10 9 8 8 7 7 6 6 6 7 6 7 7 3
4 8 9 11 12 12 13 13 15 13 13 12 12 11 11 11 11 10 9 9 9 9 8 7 6 6 6 6 6 6 6 5
2 7 11 13 14 13 13 13 14 13 13 14 14 13 12 11 10 9 9 9 9 8 7 6 6 5 4 5 6 5 6 6
Wind_Direction
308 285 287 282 254 229 213 209 208 208 211 208 209 208 210 210 209 202 198 196 198 195 200 199 206 207 209 203 206 218 219 238
293 286 295 293 261 256 228 211 209 208 209 214 213 210 206 208 206 200 201 200 196 199 201 197 201 202 206 211 214 228 227 231
265 274 279 282 263 268 259 222 213 206 208 217 216 217 212 209 203 199 201 202 198 195 199 197 191 195 211 218 223 227 234 234
277 267 268 253 257 260 265 234 218 203 212 214 213 215 214 211 206 203 203 198 196 192 197 196 190 193 201 215 217 224 236 239
262 262 254 256 251 253 245 244 221 211 213 216 216 215 213 210 212 206 202 198 194 193 198 196 195 194 195 193 191 195 229 232
261 256 249 248 251 247 253 241 221 215 220 211 219 218 214 214 210 205 201 199 194 193 197 203 201 195 193 197 212 192 221 232
250 251 250 250 245 252 261 243 235 220 222 222 216 217 214 212 204 197 195 196 195 201 196 204 203 195 190 203 204 214 215 229
268 261 253 253 255 250 249 247 236 224 220 216 212 210 208 202 193 192 182 196 202 199 188 198 194 191 201 204 215 203 230 245
272 265 265 260 258 255 245 256 211 197 188 199 211 207 196 197 191 183 189 198 199 195 187 177 190 195 197 204 204 208 212 222
268 267 263 264 261 264 266 266 238 201 196 191 188 174 191 187 182 187 191 195 192 186 180 184 180 185 189 200 195 175 212 194
272 268 263 261 259 258 266 276 232 206 194 165 134 128 131 178 183 176 191 187 184 180 174 176 180 184 190 188 193 190 222 185
255 260 261 256 257 267 267 268 226 205 182 183 180 181 164 177 168 165 170 178 174 165 171 172 176 159 165 188 183 193 220 215
262 261 255 258 265 276 276 238 194 182 185 185 178 181 144 148 152 152 156 160 156 160 165 169 165 170 179 188 182 198 204 217
254 261 263 263 264 259 240 197 175 171 176 176 180 163 146 145 147 146 148 149 142 153 157 161 164 170 177 182 192 196 198 206
260 261 258 251 241 231 192 182 162 162 160 160 165 156 147 147 151 143 144 139 148 153 158 161 166 173 169 182 189 197 201 207
273 258 235 228 193 167 169 156 143 145 145 146 145 137 138 146 141 143 146 146 144 150 154 156 162 166 177 187 196 209 202 211
289 198 180 167 157 153 147 135 130 138 139 135 126 133 141 136 131 137 140 135 138 145 145 152 169 183 192 194 208 213 208 204
172 165 155 151 141 133 128 130 129 133 127 123 128 130 129 125 128 132 136 130 135 143 151 165 173 186 194 202 213 218 204 173
156 155 145 137 137 130 127 124 124 122 123 124 124 122 121 127 131 133 133 133 142 150 159 168 179 195 205 205 218 205 171 175
171 149 140 145 132 130 125 126 122 124 126 124 120 121 125 124 130 132 140 139 142 148 159 169 183 190 202 217 215 162 164 166